Location: Newark
(33.6333°S, 78.8500°W)
Time: 00:25:14
(UTC+00:00)

Courier 1B - Pass Details

Date: 30 September 2019
Orbit: 962 x 1209 km, 28.3° (Epoch: 19 October)

Event Time Altitude Azimuth Distance (km) Brightness Sun altitude
Rises 20:02:03 0° 287° (WNW) 4,087 11.6 38.7°
Reaches altitude 10° 20:04:56 10° 291° (WNW) 3,138 11.4 38.1°
Maximum altitude 20:12:36 57° 7° (N) 1,400 9.1 36.7°
Drops below altitude 10° 20:20:14 10° 83° (E) 3,118 9.8 35.2°
Sets 20:23:05 0° 86° (E) 4,058 10.3 34.7°
